This demonstration page uses our WeatherBlox Daily Observations layout. Learn more.

Left ArrowRight Arrow

Hourly Observations for October 28, 2022

Temp ( °F °C ) Dew Point ( °F °C ) Humidity (%) Winds ( mph kmh ) Pressure ( in mb ) Visibility ( mi km ) Precip ( " mm )
12:53 am 00:53 Clear 46 7.8 26 -3.3 45 45 WNW 3 6 30.07 1018 10 16 0.00 0.00
1:53 am 01:53 Clear 45 7.2 26 -3.3 47 47 Calm 30.08 1019 10 16 0.00 0.00
2:53 am 02:53 Clear 43 6.1 25 -3.9 49 49 Calm 30.09 1019 10 16 0.00 0.00
3:53 am 03:53 Clear 43 6.1 27 -2.8 53 53 Calm 30.10 1019 10 16 0.00 0.00
4:53 am 04:53 Clear 45 7.2 27 -2.8 49 49 NNW 3 6 30.10 1019 10 16 0.00 0.00
5:53 am 05:53 Clear 46 7.8 28 -2.2 49 49 Calm 30.12 1020 10 16 0.00 0.00
6:53 am 06:53 Clear 44 6.7 29 -1.7 55 55 Calm 30.14 1021 10 16 0.00 0.00
7:53 am 07:53 Sunny 44 6.7 31 -0.6 60 60 Calm 30.16 1021 10 16 0.00 0.00
8:53 am 08:53 Sunny 48 8.9 31 -0.6 51 51 Calm 30.18 1022 10 16 0.00 0.00
9:53 am 09:53 Sunny 56 13.3 33 0.6 42 42 NW 3 6 30.19 1022 10 16 0.00 0.00
10:53 am 10:53 Sunny 63 17.2 30 -1.1 29 29 NE 3 6 30.19 1022 10 16 0.00 0.00
11:53 am 11:53 Sunny 65 18.3 30 -1.1 27 27 Calm 30.19 1022 10 16 0.00 0.00
12:53 pm 12:53 Sunny 70 21.1 30 -1.1 23 23 Calm 30.16 1021 10 16 0.00 0.00
1:53 pm 13:53 Sunny 71 21.7 30 -1.1 22 22 Calm 30.14 1021 10 16 0.00 0.00
2:53 pm 14:53 Sunny 73 22.8 31 -0.6 21 21 VRB 3 6 30.14 1021 10 16 0.00 0.00
3:53 pm 15:53 Sunny 75 23.9 30 -1.1 19 19 Calm 30.12 1020 8 13 0.00 0.00
4:53 pm 16:53 Sunny 73 22.8 30 -1.1 20 20 Calm 30.12 1020 10 16 0.00 0.00
5:53 pm 17:53 Sunny 70 21.1 32 0 24 24 Calm 30.12 1020 10 16 0.00 0.00
6:53 pm 18:53 Clear 63 17.2 33 0.6 33 33 NNE 3 6 30.14 1021 10 16 0.00 0.00
7:53 pm 19:53 Clear 58 14.4 32 0 37 37 Calm 30.16 1021 10 16 0.00 0.00
8:53 pm 20:53 Clear 57 13.9 33 0.6 40 40 NNW 5 7 30.16 1021 10 16 0.00 0.00
9:53 pm 21:53 Clear 53 11.7 32 0 44 44 N 5 7 30.17 1022 10 16 0.00 0.00
10:53 pm 22:53 Clear 50 10 31 -0.6 48 48 N 6 9 30.18 1022 10 16 0.00 0.00
11:53 pm 23:53 Clear 49 9.4 33 0.6 54 54 Calm 30.19 1023 10 16 0.00 0.00

Powered by AerisWeather